Tracking 27420 objects as of 28-May-2023
HD Live streaming from Space Station
objects crossing your sky now

STARLINK-5990

Track STARLINK-5990 now!
10-day predictions
STARLINK-5990 is classified as:


NORAD ID: 56448
Int'l Code: 2023-064A
Perigee: 363.8 km
Apogee: 368.9 km
Inclination: 70.0 °
Period: 91.7 minutes
Semi major axis: 6737 km
RCS: Unknown
Launch date: May 10, 2023
Source: United States (US)
Launch site: AIR FORCE WESTERN TEST RANGE (AFWTR)
Your satellite tracking list
Your tracking list is empty




NASA's NSSDC Master Catalog

Two Line Element Set (TLE):
1 56448U 23064A   23148.58334491  .00054475  00000-0  45232-3 0  9991
2 56448  69.9986 195.1085 0003779 275.0425 228.2298 15.69898303  3183
Source of the keplerian elements: AFSPC